This demonstration page uses our WeatherBlox Daily Observations layout. Learn more.

Left ArrowRight Arrow

44.89941, -97.11507

Hourly Observations for October 7, 2022

Temp ( °F °C ) Dew Point ( °F °C ) Humidity (%) Winds ( mph kmh ) Pressure ( in mb ) Visibility ( mi km ) Precip ( " mm )
12:53 am 00:53 Partly Cloudy 27 -2.8 24 -4.4 89 89 N 7 11 30.56 1035 10 16 0.00 0.00
1:53 am 01:53 Cloudy 30 -1.1 27 -2.8 88 88 N 6 9 30.56 1035 10 16 0.00 0.00
2:53 am 02:53 Mostly Cloudy 29 -1.7 26 -3.3 89 89 N 8 13 30.56 1035 10 16 0.00 0.00
3:53 am 03:53 Cloudy 31 -0.6 28 -2.2 89 89 NNW 6 9 30.57 1035 10 16 0.00 0.00
4:53 am 04:53 Cloudy 30 -1.1 27 -2.8 88 88 NNW 3 6 30.58 1035 10 16 0.00 0.00
5:53 am 05:53 Cloudy 29 -1.7 26 -3.3 89 89 N 6 9 30.59 1036 10 16 0.00 0.00
6:53 am 06:53 Partly Cloudy 28 -2.2 25 -3.9 88 88 NNW 5 7 30.60 1036 10 16 0.00 0.00
7:53 am 07:53 Mostly Cloudy 28 -2.2 25 -3.9 88 88 N 3 6 30.63 1037 10 16 0.00 0.00
8:53 am 08:53 Sunny 31 -0.6 27 -2.8 85 85 N 5 7 30.63 1037 10 16 0.00 0.00
9:53 am 09:53 Sunny 39 3.9 30 -1.1 70 70 VRB 3 6 30.63 1037 10 16 0.00 0.00
10:53 am 10:53 Mostly Sunny 41 5 26 -3.3 55 55 undefined N/A 30.62 1037 10 16 0.00 0.00
11:53 am 11:53 Sunny 42 5.6 26 -3.3 53 53 W 5 7 30.61 1037 10 16 0.00 0.00
12:53 pm 12:53 Sunny 44 6.7 25 -3.9 47 47 WNW 7 11 30.59 1036 10 16 0.00 0.00
1:53 pm 13:53 Sunny 47 8.3 25 -3.9 42 42 W 7 11 30.55 1035 10 16 0.00 0.00
2:53 pm 14:53 Sunny 47 8.3 25 -3.9 42 42 NW 7 11 30.53 1034 10 16 0.00 0.00
3:53 pm 15:53 Sunny 48 8.9 25 -3.9 40 40 VRB 6 9 30.50 1033 10 16 0.00 0.00
4:53 pm 16:53 Sunny 48 8.9 23 -5 37 37 VRB 3 6 30.49 1032 10 16 0.00 0.00
5:53 pm 17:53 Sunny 47 8.3 23 -5 38 38 WNW 8 13 30.48 1032 10 16 0.00 0.00
6:53 pm 18:53 Sunny 43 6.1 22 -5.6 43 43 W 6 9 30.48 1032 10 16 0.00 0.00
7:53 pm 19:53 Clear 40 4.4 24 -4.4 53 53 WNW 6 9 30.49 1033 10 16 0.00 0.00
8:53 pm 20:53 Clear 36 2.2 26 -3.3 67 67 W 7 11 30.48 1032 10 16 0.00 0.00
9:53 pm 21:53 Clear 33 0.6 25 -3.9 72 72 WSW 7 11 30.47 1032 10 16 0.00 0.00
10:53 pm 22:53 Clear 33 0.6 27 -2.8 78 78 SSW 3 6 30.46 1031 10 16 0.00 0.00
11:53 pm 23:53 Clear 31 -0.6 26 -3.3 82 82 SSW 8 13 30.44 1031 10 16 0.00 0.00

Powered by AerisWeather